Time,TemperatureF,DewpointF,PressureIn,WindDirection,WindDirectionDegrees,WindSpeedMPH,WindSpeedGustMPH,Humidity,HourlyPrecipIn,Conditions,Clouds,dailyrainin,SoftwareType,DateUTC
2013-05-03 00:03:00,43.0,40.0,30.11,NNW,340,4.0,8.0,88,0.00,,,0.00,,2013-05-03 04:03:00,
2013-05-03 00:12:00,43.0,40.0,30.11,NNW,340,4.0,8.0,88,0.00,,,0.00,,2013-05-03 04:12:00,
2013-05-03 00:22:00,42.0,39.0,30.11,NNW,334,4.0,8.0,88,0.00,,,0.00,,2013-05-03 04:22:00,
2013-05-03 00:32:00,42.0,39.0,30.11,NNW,335,3.0,10.0,88,0.00,,,0.00,,2013-05-03 04:32:00,
2013-05-03 00:42:00,42.0,39.0,30.11,NNW,335,3.0,10.0,88,0.00,,,0.00,,2013-05-03 04:42:00,
2013-05-03 00:52:00,42.0,39.0,30.11,NNW,339,3.0,8.0,89,0.00,,,0.00,,2013-05-03 04:52:00,
2013-05-03 01:02:00,43.0,40.0,30.11,NNW,338,2.0,6.0,89,0.00,,,0.00,,2013-05-03 05:02:00,
2013-05-03 01:12:00,43.0,40.0,30.11,NNW,338,2.0,6.0,89,0.00,,,0.00,,2013-05-03 05:12:00,
2013-05-03 01:21:00,42.0,39.0,30.10,NNW,336,3.0,8.0,89,0.00,,,0.00,,2013-05-03 05:21:00,
2013-05-03 01:32:00,42.0,39.0,30.10,NNW,334,2.0,5.0,90,0.00,,,0.00,,2013-05-03 05:32:00,
2013-05-03 01:42:00,42.0,39.0,30.10,NNW,334,2.0,5.0,90,0.00,,,0.00,,2013-05-03 05:42:00,
2013-05-03 01:52:00,42.0,39.0,30.09,NNW,339,1.0,4.0,90,0.00,,,0.00,,2013-05-03 05:52:00,
2013-05-03 02:02:00,42.0,39.0,30.09,NNW,331,3.0,7.0,90,0.00,,,0.00,,2013-05-03 06:02:00,
2013-05-03 02:12:00,42.0,39.0,30.09,NNW,331,3.0,7.0,90,0.00,,,0.00,,2013-05-03 06:12:00,
2013-05-03 02:21:00,43.0,40.0,30.09,NNW,330,1.0,6.0,90,0.00,,,0.00,,2013-05-03 06:21:00,
2013-05-03 02:32:00,43.0,40.0,30.08,NNW,339,0.0,6.0,90,0.00,,,0.00,,2013-05-03 06:32:00,
2013-05-03 02:42:00,43.0,40.0,30.08,NNW,339,0.0,6.0,90,0.00,,,0.00,,2013-05-03 06:42:00,
2013-05-03 02:51:00,42.0,39.0,30.07,NNW,334,3.0,6.0,90,0.00,,,0.00,,2013-05-03 06:51:00,
2013-05-03 03:01:00,42.0,40.0,30.07,NNW,336,2.0,6.0,91,0.00,,,0.00,,2013-05-03 07:01:00,
2013-05-03 03:11:00,42.0,40.0,30.07,NNW,336,2.0,6.0,91,0.00,,,0.00,,2013-05-03 07:11:00,
2013-05-03 03:21:00,42.0,40.0,30.07,NNW,336,2.0,5.0,91,0.00,,,0.00,,2013-05-03 07:21:00,
2013-05-03 03:31:00,42.0,40.0,30.07,NNW,341,0.0,5.0,91,0.00,,,0.00,,2013-05-03 07:31:00,
2013-05-03 03:42:00,42.0,40.0,30.07,NNW,341,0.0,5.0,91,0.00,,,0.00,,2013-05-03 07:42:00,
2013-05-03 03:52:00,42.0,40.0,30.06,NNW,345,2.0,5.0,91,0.00,,,0.00,,2013-05-03 07:52:00,
2013-05-03 04:02:00,42.0,40.0,30.07,NNW,340,1.0,6.0,91,0.00,,,0.00,,2013-05-03 08:02:00,
2013-05-03 04:11:00,42.0,40.0,30.07,NNW,340,1.0,6.0,91,0.00,,,0.00,,2013-05-03 08:11:00,
2013-05-03 04:21:00,42.0,40.0,30.06,NNW,342,2.0,4.0,92,0.00,,,0.00,,2013-05-03 08:21:00,
2013-05-03 04:32:00,42.0,40.0,30.06,NNW,337,1.0,3.0,92,0.00,,,0.00,,2013-05-03 08:32:00,
2013-05-03 04:42:00,42.0,40.0,30.06,NNW,337,1.0,3.0,92,0.00,,,0.00,,2013-05-03 08:42:00,
2013-05-03 04:52:00,43.0,41.0,30.06,NNW,334,0.0,4.0,93,0.00,,,0.00,,2013-05-03 08:52:00,
2013-05-03 05:01:00,43.0,41.0,30.05,NNW,331,1.0,6.0,93,0.00,,,0.00,,2013-05-03 09:01:00,
2013-05-03 05:12:00,43.0,41.0,30.05,NNW,331,1.0,6.0,93,0.00,,,0.00,,2013-05-03 09:12:00,
2013-05-03 05:21:00,43.0,41.0,30.05,NW,320,0.0,3.0,93,0.00,,,0.00,,2013-05-03 09:21:00,
2013-05-03 05:32:00,43.0,41.0,30.05,NW,320,0.0,2.0,93,0.00,,,0.00,,2013-05-03 09:32:00,
2013-05-03 05:42:00,43.0,41.0,30.05,NW,320,0.0,2.0,93,0.00,,,0.00,,2013-05-03 09:42:00,
2013-05-03 05:52:00,43.0,41.0,30.05,NNW,341,0.0,4.0,93,0.00,,,0.00,,2013-05-03 09:52:00,
2013-05-03 06:02:00,43.0,41.0,30.05,NNW,341,0.0,4.0,93,0.00,,,0.00,,2013-05-03 10:02:00,
2013-05-03 06:12:00,43.0,41.0,30.05,NNW,341,0.0,4.0,93,0.00,,,0.00,,2013-05-03 10:12:00,
2013-05-03 06:22:00,43.0,41.0,30.06,NNW,331,0.0,3.0,92,0.00,,,0.00,,2013-05-03 10:22:00,
2013-05-03 06:32:00,43.0,41.0,30.05,NNW,331,0.0,3.0,92,0.00,,,0.00,,2013-05-03 10:32:00,
2013-05-03 06:42:00,43.0,41.0,30.05,NNW,331,0.0,3.0,92,0.00,,,0.00,,2013-05-03 10:42:00,
2013-05-03 06:52:00,44.0,42.0,30.05,NNW,331,0.0,2.0,92,0.00,,,0.00,,2013-05-03 10:52:00,
2013-05-03 07:02:00,44.0,42.0,30.05,NNW,331,0.0,3.0,92,0.00,,,0.00,,2013-05-03 11:02:00,
2013-05-03 07:11:00,44.0,42.0,30.05,NNW,331,0.0,3.0,92,0.00,,,0.00,,2013-05-03 11:11:00,
2013-05-03 07:22:00,44.0,42.0,30.05,NNW,331,0.0,3.0,92,0.00,,,0.00,,2013-05-03 11:22:00,
2013-05-03 07:32:00,44.0,42.0,30.05,NW,325,1.0,4.0,92,0.00,,,0.00,,2013-05-03 11:32:00,
2013-05-03 07:42:00,44.0,42.0,30.05,NW,325,1.0,4.0,92,0.00,,,0.00,,2013-05-03 11:42:00,
2013-05-03 07:51:00,44.0,42.0,30.05,NW,320,1.0,4.0,92,0.00,,,0.00,,2013-05-03 11:51:00,
2013-05-03 08:01:00,44.0,42.0,30.05,NNW,345,1.0,3.0,92,0.00,,,0.00,,2013-05-03 12:01:00,
2013-05-03 08:11:00,44.0,42.0,30.05,NNW,345,1.0,3.0,92,0.00,,,0.00,,2013-05-03 12:11:00,
2013-05-03 08:21:00,44.0,42.0,30.05,NNW,340,0.0,4.0,91,0.00,,,0.00,,2013-05-03 12:21:00,
2013-05-03 08:32:00,45.0,43.0,30.06,NW,324,0.0,3.0,91,0.00,,,0.00,,2013-05-03 12:32:00,
2013-05-03 08:42:00,45.0,43.0,30.06,NW,324,0.0,3.0,91,0.00,,,0.00,,2013-05-03 12:42:00,
2013-05-03 08:51:00,45.0,43.0,30.06,NNW,331,0.0,3.0,91,0.00,,,0.00,,2013-05-03 12:51:00,
2013-05-03 09:01:00,46.0,44.0,30.05,NNW,331,1.0,4.0,91,0.00,,,0.00,,2013-05-03 13:01:00,
2013-05-03 09:11:00,46.0,44.0,30.05,NNW,331,1.0,4.0,91,0.00,,,0.00,,2013-05-03 13:11:00,
2013-05-03 09:22:00,47.0,44.0,30.05,NNW,344,0.0,3.0,90,0.00,,,0.00,,2013-05-03 13:22:00,
2013-05-03 09:32:00,50.0,46.0,30.05,NNW,347,0.0,3.0,87,0.00,,,0.00,,2013-05-03 13:32:00,
2013-05-03 09:42:00,50.0,46.0,30.05,NNW,347,0.0,3.0,87,0.00,,,0.00,,2013-05-03 13:42:00,
2013-05-03 09:52:00,51.0,47.0,30.04,NNW,339,0.0,2.0,85,0.00,,,0.00,,2013-05-03 13:52:00,
2013-05-03 10:02:00,53.0,48.0,30.04,NNW,348,0.0,4.0,83,0.00,,,0.00,,2013-05-03 14:02:00,
2013-05-03 10:11:00,53.0,48.0,30.04,NNW,348,0.0,4.0,83,0.00,,,0.00,,2013-05-03 14:11:00,
2013-05-03 10:22:00,54.0,48.0,30.04,North,349,0.0,4.0,81,0.00,,,0.00,,2013-05-03 14:22:00,
2013-05-03 10:32:00,55.0,49.0,30.03,NNW,329,0.0,3.0,80,0.00,,,0.00,,2013-05-03 14:32:00,
2013-05-03 10:42:00,55.0,49.0,30.03,NNW,329,0.0,3.0,80,0.00,,,0.00,,2013-05-03 14:42:00,
2013-05-03 10:52:00,57.0,51.0,30.03,NNW,340,0.0,4.0,80,0.00,,,0.00,,2013-05-03 14:52:00,
2013-05-03 11:01:00,58.0,50.0,30.03,NNW,339,1.0,3.0,76,0.00,,,0.00,,2013-05-03 15:01:00,
2013-05-03 11:11:00,58.0,50.0,30.03,NNW,339,1.0,3.0,76,0.00,,,0.00,,2013-05-03 15:11:00,
2013-05-03 11:22:00,60.0,52.0,30.03,NW,324,1.0,4.0,74,0.00,,,0.00,,2013-05-03 15:22:00,
2013-05-03 11:32:00,60.0,51.0,30.02,NNW,329,0.0,3.0,73,0.00,,,0.00,,2013-05-03 15:32:00,
2013-05-03 11:43:00,60.0,51.0,30.02,NNW,329,0.0,3.0,73,0.00,,,0.00,,2013-05-03 15:43:00,
2013-05-03 11:53:00,61.0,52.0,30.02,NNW,340,0.0,3.0,73,0.00,,,0.00,,2013-05-03 15:53:00,
2013-05-03 12:03:00,64.0,54.0,30.02,WNW,289,1.0,4.0,70,0.00,,,0.00,,2013-05-03 16:03:00,
2013-05-03 12:13:00,64.0,54.0,30.02,WNW,289,1.0,4.0,70,0.00,,,0.00,,2013-05-03 16:13:00,
2013-05-03 12:23:00,66.0,55.0,30.02,NNW,336,2.0,5.0,67,0.00,,,0.00,,2013-05-03 16:23:00,
2013-05-03 12:32:00,67.0,55.0,30.02,North,360,1.0,5.0,65,0.00,,,0.00,,2013-05-03 16:32:00,
2013-05-03 12:42:00,67.0,55.0,30.02,North,360,1.0,5.0,65,0.00,,,0.00,,2013-05-03 16:42:00,
2013-05-03 12:52:00,68.0,57.0,30.01,West,275,2.0,6.0,67,0.00,,,0.00,,2013-05-03 16:52:00,
2013-05-03 13:02:00,70.0,58.0,30.01,SSW,211,0.0,6.0,65,0.00,,,0.00,,2013-05-03 17:02:00,
2013-05-03 13:12:00,70.0,58.0,30.01,SSW,211,0.0,6.0,65,0.00,,,0.00,,2013-05-03 17:12:00,
2013-05-03 13:23:00,72.0,58.0,30.01,NW,311,1.0,3.0,61,0.00,,,0.00,,2013-05-03 17:23:00,
2013-05-03 13:32:00,72.0,58.0,30.00,North,349,0.0,3.0,62,0.00,,,0.00,,2013-05-03 17:32:00,
2013-05-03 13:42:00,72.0,58.0,30.00,North,349,0.0,3.0,62,0.00,,,0.00,,2013-05-03 17:42:00,
2013-05-03 13:52:00,73.0,58.0,29.99,ESE,121,0.0,6.0,59,0.00,,,0.00,,2013-05-03 17:52:00,
2013-05-03 14:01:00,73.0,59.0,29.99,NE,42,1.0,4.0,61,0.00,,,0.00,,2013-05-03 18:01:00,
2013-05-03 14:12:00,73.0,59.0,29.99,NE,42,1.0,4.0,61,0.00,,,0.00,,2013-05-03 18:12:00,
2013-05-03 14:21:00,73.0,58.0,29.98,South,172,1.0,4.0,60,0.00,,,0.00,,2013-05-03 18:21:00,
2013-05-03 14:32:00,72.0,59.0,29.98,NNW,327,0.0,4.0,64,0.00,,,0.00,,2013-05-03 18:32:00,
2013-05-03 14:42:00,72.0,59.0,29.98,NNW,327,0.0,4.0,64,0.00,,,0.00,,2013-05-03 18:42:00,
2013-05-03 14:51:00,72.0,58.0,29.98,NNW,338,0.0,7.0,61,0.00,,,0.00,,2013-05-03 18:51:00,
2013-05-03 15:01:00,69.0,61.0,29.98,NNW,338,0.0,2.0,77,0.03,,,0.03,,2013-05-03 19:01:00,
2013-05-03 15:11:00,69.0,61.0,29.98,NNW,338,0.0,2.0,77,0.03,,,0.03,,2013-05-03 19:11:00,
2013-05-03 15:21:00,69.0,61.0,29.97,NNW,341,1.0,4.0,77,0.03,,,0.03,,2013-05-03 19:21:00,
2013-05-03 15:32:00,66.0,58.0,29.97,North,360,4.0,9.0,76,0.06,,,0.06,,2013-05-03 19:32:00,
2013-05-03 15:42:00,66.0,58.0,29.97,North,360,4.0,9.0,76,0.06,,,0.06,,2013-05-03 19:42:00,
2013-05-03 15:52:00,61.0,55.0,29.99,NW,323,3.0,6.0,81,0.07,,,0.07,,2013-05-03 19:52:00,
2013-05-03 16:02:00,60.0,55.0,29.99,NNW,348,2.0,5.0,84,0.05,,,0.08,,2013-05-03 20:02:00,
2013-05-03 16:11:00,60.0,55.0,29.99,NNW,348,2.0,5.0,84,0.05,,,0.08,,2013-05-03 20:11:00,
2013-05-03 16:21:00,58.0,54.0,29.99,NW,307,0.0,6.0,87,0.10,,,0.13,,2013-05-03 20:21:00,
2013-05-03 16:32:00,57.0,54.0,29.98,NNW,344,2.0,6.0,91,0.15,,,0.21,,2013-05-03 20:32:00,
2013-05-03 16:42:00,57.0,54.0,29.98,NNW,344,2.0,6.0,91,0.15,,,0.21,,2013-05-03 20:42:00,
2013-05-03 16:52:00,56.0,53.0,29.97,NNW,348,2.0,7.0,91,0.14,,,0.21,,2013-05-03 20:52:00,
2013-05-03 17:01:00,55.0,53.0,29.97,NNW,332,3.0,6.0,92,0.13,,,0.21,,2013-05-03 21:01:00,
2013-05-03 17:11:00,55.0,53.0,29.97,NNW,332,3.0,6.0,92,0.13,,,0.21,,2013-05-03 21:11:00,
2013-05-03 17:21:00,56.0,54.0,29.97,NW,323,2.0,6.0,92,0.07,,,0.21,,2013-05-03 21:21:00,
2013-05-03 17:33:00,56.0,54.0,29.97,WNW,291,1.0,8.0,92,0.00,,,0.21,,2013-05-03 21:33:00,
2013-05-03 17:42:00,56.0,54.0,29.97,WNW,291,1.0,8.0,92,0.00,,,0.21,,2013-05-03 21:42:00,
2013-05-03 17:52:00,57.0,54.0,29.97,NNW,328,4.0,7.0,90,0.00,,,0.21,,2013-05-03 21:52:00,
2013-05-03 18:02:00,58.0,55.0,29.96,NNW,335,1.0,8.0,90,0.00,,,0.21,,2013-05-03 22:02:00,
2013-05-03 18:13:00,58.0,55.0,29.96,NNW,335,1.0,8.0,90,0.00,,,0.21,,2013-05-03 22:13:00,
2013-05-03 18:22:00,59.0,55.0,29.96,NNW,338,1.0,4.0,88,0.00,,,0.21,,2013-05-03 22:22:00,
2013-05-03 18:32:00,60.0,57.0,29.96,North,355,0.0,3.0,89,0.00,,,0.21,,2013-05-03 22:32:00,
2013-05-03 18:42:00,60.0,57.0,29.96,North,355,0.0,3.0,89,0.00,,,0.21,,2013-05-03 22:42:00,
2013-05-03 18:52:00,60.0,56.0,29.96,NNW,342,0.0,3.0,87,0.00,,,0.21,,2013-05-03 22:52:00,
2013-05-03 19:02:00,62.0,58.0,29.95,NNW,333,0.0,3.0,87,0.00,,,0.21,,2013-05-03 23:02:00,
2013-05-03 19:11:00,62.0,58.0,29.95,NNW,333,0.0,3.0,87,0.00,,,0.21,,2013-05-03 23:11:00,
2013-05-03 19:21:00,62.0,57.0,29.95,North,5,0.0,3.0,83,0.00,,,0.21,,2013-05-03 23:21:00,
2013-05-03 19:31:00,62.0,56.0,29.95,NNE,18,1.0,4.0,82,0.00,,,0.21,,2013-05-03 23:31:00,
2013-05-03 19:41:00,62.0,56.0,29.95,NNE,18,1.0,4.0,82,0.00,,,0.21,,2013-05-03 23:41:00,
2013-05-03 19:52:00,62.0,56.0,29.95,NNE,17,1.0,3.0,81,0.00,,,0.21,,2013-05-03 23:52:00,
2013-05-03 20:01:00,63.0,57.0,29.95,NNE,19,0.0,2.0,81,0.00,,,0.21,,2013-05-04 00:01:00,
2013-05-03 20:11:00,63.0,57.0,29.95,NNE,19,0.0,2.0,81,0.00,,,0.21,,2013-05-04 00:11:00,
2013-05-03 20:23:00,63.0,57.0,29.95,NNE,19,0.0,1.0,82,0.00,,,0.21,,2013-05-04 00:23:00,
2013-05-03 20:32:00,63.0,58.0,29.96,NNE,19,0.0,2.0,83,0.00,,,0.21,,2013-05-04 00:32:00,
2013-05-03 20:41:00,63.0,58.0,29.96,NNE,19,0.0,2.0,83,0.00,,,0.21,,2013-05-04 00:41:00,
2013-05-03 20:52:00,62.0,57.0,29.96,NNE,19,0.0,2.0,83,0.00,,,0.21,,2013-05-04 00:52:00,
2013-05-03 21:01:00,62.0,57.0,29.96,NNE,19,1.0,3.0,85,0.00,,,0.21,,2013-05-04 01:01:00,
2013-05-03 21:11:00,62.0,57.0,29.96,NNE,19,1.0,3.0,85,0.00,,,0.21,,2013-05-04 01:11:00,
2013-05-03 21:21:00,62.0,58.0,29.97,West,269,0.0,2.0,86,0.00,,,0.21,,2013-05-04 01:21:00,
2013-05-03 21:32:00,61.0,57.0,29.96,NW,325,0.0,4.0,87,0.00,,,0.21,,2013-05-04 01:32:00,
2013-05-03 21:41:00,61.0,57.0,29.96,NW,325,0.0,4.0,87,0.00,,,0.21,,2013-05-04 01:41:00,
2013-05-03 21:52:00,60.0,56.0,29.96,NW,325,0.0,1.0,88,0.00,,,0.21,,2013-05-04 01:52:00,
2013-05-03 22:02:00,60.0,57.0,29.96,NW,325,0.0,2.0,90,0.00,,,0.21,,2013-05-04 02:02:00,
2013-05-03 22:11:00,60.0,57.0,29.96,NW,325,0.0,2.0,90,0.00,,,0.21,,2013-05-04 02:11:00,
2013-05-03 22:21:00,59.0,56.0,29.96,NW,325,0.0,0.0,90,0.00,,,0.21,,2013-05-04 02:21:00,
2013-05-03 22:32:00,59.0,56.0,29.97,NW,325,0.0,0.0,91,0.00,,,0.21,,2013-05-04 02:32:00,
2013-05-03 22:41:00,59.0,56.0,29.97,NW,325,0.0,0.0,91,0.00,,,0.21,,2013-05-04 02:41:00,
2013-05-03 22:52:00,58.0,55.0,29.96,NW,325,0.0,0.0,91,0.00,,,0.21,,2013-05-04 02:52:00,
2013-05-03 23:02:00,58.0,56.0,29.96,NW,325,0.0,0.0,92,0.00,,,0.21,,2013-05-04 03:02:00,
2013-05-03 23:11:00,58.0,56.0,29.96,NW,325,0.0,0.0,92,0.00,,,0.21,,2013-05-04 03:11:00,
2013-05-03 23:22:00,60.0,54.0,29.96,NW,325,0.0,1.0,81,0.00,,,0.21,,2013-05-04 03:22:00,
2013-05-03 23:33:00,64.0,53.0,29.96,SE,142,1.0,6.0,68,0.00,,,0.21,,2013-05-04 03:33:00,
2013-05-03 23:43:00,64.0,53.0,29.96,SE,142,1.0,6.0,68,0.00,,,0.21,,2013-05-04 03:43:00,
2013-05-03 23:52:00,66.0,53.0,29.96,ESE,115,2.0,4.0,63,0.00,,,0.21,,2013-05-04 03:52:00,